Location: Brantley
(31.5822°N, 86.2569°W)
Time: 20:45:40
(UTC+00:00)

Injun/Solrad 3 - Pass Details

Date: 19 February 2026
Orbit: 872 x 984 km, 66.8° (Epoch: 8 March)

Event Time Altitude Azimuth Distance (km) Brightness Sun altitude
Rises 01:14:57 0° 345° (NNW) 3,589 11.2 -22.0°
Reaches altitude 10° 01:17:46 10° 355° (N) 2,661 10.3 -22.6°
Enters shadow 01:22:00 30° 35° (NE) 1,649 8.9 -23.5°
Maximum altitude 01:23:16 32° 58° (ENE) 1,575 - -23.8°
Drops below altitude 10° 01:28:52 10° 120° (ESE) 2,710 - -25.0°
Sets 01:31:43 0° 130° (SE) 3,665 - -25.6°
